Todos
Briscoes Catarina Ranch Airport (Catarina, TX) 1TE1 Condições meteorológicas
There is no TAF data available at 1TE1 or any nearby airports.
There is no METAR data available at 1TE1. Showing METAR data for KCZT (19 mi N).
Histórico recente de METAR CZT (sem dados para 1TE1)
| Date | Time (CDT) | Flight Rules | Wind Dir. | Speed | Type | Height AGL (ft) | Visibility | Temp (°C) | Temp (°F) | Dew Point (°C) | Dew Point (°F) | Rel. Humid. | Pressure | Density Altitude | Remarks |
|---|---|---|---|---|---|---|---|---|---|---|---|---|---|---|---|
| 04-Mai | 05:55 | VFR | 140° | 5 kt | 10 miles | 17° | 62° | 16° | 60° | 94% | 29.95 in Hg | 808 ft | |||
| 04-Mai | 05:35 | VFR | 140° | 4 kt | 10 miles | 17° | 62° | 16° | 60° | 94% | 29.95 in Hg | 808 ft | |||
| 04-Mai | 05:15 | VFR | 150° | 4 kt | 10 miles | 17° | 62° | 16° | 60° | 94% | 29.96 in Hg | 798 ft | |||
| 04-Mai | 04:55 | VFR | 140° | 3 kt | 10 miles | 17° | 62° | 15° | 59° | 88% | 29.98 in Hg | 778 ft | |||
| 04-Mai | 04:15 | VFR | 150° | 3 kt | 10 miles | 18° | 64° | 14° | 57° | 77% | 29.97 in Hg | 908 ft | |||
| 04-Mai | 03:55 | VFR | 160° | 9 kt | 10 miles | 18° | 64° | 13° | 55° | 73% | 29.95 in Hg | 928 ft | |||
| 04-Mai | 03:35 | VFR | 160° | 9 kt | 10 miles | 18° | 64° | 13° | 55° | 73% | 29.97 in Hg | 908 ft | |||
| 04-Mai | 03:15 | VFR | 160° | 7 kt | 10 miles | 18° | 64° | 13° | 55° | 73% | 29.98 in Hg | 898 ft | |||
| 04-Mai | 02:55 | VFR | 160° | 7 kt | 10 miles | 18° | 64° | 13° | 55° | 73% | 29.99 in Hg | 888 ft | |||
| 04-Mai | 02:15 | VFR | 160° | 8 kt | 10 miles | 18° | 64° | 13° | 55° | 73% | 30.00 in Hg | 878 ft | |||
| 04-Mai | 01:55 | VFR | 160° | 7 kt | 10 miles | 19° | 66° | 13° | 55° | 68% | 30.02 in Hg | 978 ft | |||
| 04-Mai | 01:35 | VFR | 160° | 9 kt | 10 miles | 19° | 66° | 13° | 55° | 68% | 30.01 in Hg | 988 ft | |||
| 04-Mai | 01:15 | VFR | 160° | 9 kt | 10 miles | 20° | 68° | 13° | 55° | 64% | 30.02 in Hg | 1.098 ft | |||
| 04-Mai | 00:55 | VFR | 160° | 9 kt | 10 miles | 20° | 68° | 13° | 55° | 64% | 30.03 in Hg | 1.088 ft | Wind gusting to 14 KT | ||
| 04-Mai | 00:35 | VFR | 150° | 7 kt | 10 miles | 20° | 68° | 13° | 55° | 64% | 30.03 in Hg | 1.088 ft | |||
| 04-Mai | 00:15 | VFR | 150° | 9 kt | 10 miles | 20° | 68° | 13° | 55° | 64% | 30.03 in Hg | 1.088 ft | |||
| 03-Mai | 23:55 | VFR | 150° | 6 kt | 10 miles | 20° | 68° | 13° | 55° | 64% | 30.03 in Hg | 1.088 ft | |||
| 03-Mai | 23:35 | VFR | 150° | 6 kt | 10 miles | 20° | 68° | 13° | 55° | 64% | 30.03 in Hg | 1.088 ft | |||
| 03-Mai | 23:15 | VFR | 150° | 5 kt | 10 miles | 20° | 68° | 13° | 55° | 64% | 30.03 in Hg | 1.088 ft | |||
| 03-Mai | 22:55 | VFR | 150° | 4 kt | 10 miles | 19° | 66° | 13° | 55° | 68% | 30.02 in Hg | 978 ft | |||
| 03-Mai | 22:35 | VFR | 170° | 3 kt | 10 miles | 19° | 66° | 14° | 57° | 73% | 30.03 in Hg | 968 ft | |||
| 03-Mai | 22:15 | VFR | 160° | 3 kt | 10 miles | 20° | 68° | 14° | 57° | 68% | 30.03 in Hg | 1.088 ft | |||
| 03-Mai | 21:55 | VFR | 160° | 3 kt | 10 miles | 20° | 68° | 13° | 55° | 64% | 30.03 in Hg | 1.088 ft | |||
| 03-Mai | 21:35 | VFR | 140° | 3 kt | 10 miles | 21° | 69° | 13° | 55° | 60% | 30.02 in Hg | 1.218 ft |
Entrar
| Seu navegador não suporta. atualize seu navegador |
